Wetbulb
55.49 55.69 56.34 56.96 61.05 62.68 63.06 64.12 63.45 63.31 61.77 60.06 57.56 56.78 56.76 57.30 56.80 54.75 53.74 52.09 50.39 49.23 48.27 46.46 45.55 45.76 44.63 43.78 43.51 42.71 42.88 43.26 41.59 42.33 42.64 42.11 41.69 42.07 44.32 46.55 47.70 47.17 45.41
54.87 55.96 55.64 58.74 61.09 61.95 62.61 62.92 61.99 59.75 58.58 57.28 56.84 56.42 57.06 56.28 54.99 54.04 51.51 50.24 48.50 47.15 46.23 44.96 44.53 46.62 43.41 43.75 42.38 41.72 42.72 42.28 41.35 38.49 39.42 40.61 40.90 42.42 44.21 44.12 45.38 47.54 46.06
55.17 56.04 58.38 60.80 60.82 60.47 61.97 62.41 61.16 60.69 58.91 57.90 57.30 56.64 56.84 54.97 52.32 50.83 49.39 47.98 46.68 45.55 44.48 44.02 43.50 44.59 43.57 43.52 42.00 42.49 41.73 43.37 41.14 39.21 38.26 40.73 41.00 41.84 41.67 42.89 43.05 42.92 46.39
55.62 57.54 58.08 59.68 60.74 61.01 59.19 57.30 56.94 56.96 56.74 57.08 57.00 54.89 52.78 50.68 49.61 48.57 47.52 46.50 46.04 45.32 45.53 45.34 45.10 42.92 43.00 43.13 43.06 41.62 41.04 40.39 39.68 38.39 38.97 39.34 39.52 40.90 40.98 40.59 40.48 40.95 43.33
55.33 56.11 57.28 59.37 59.65 58.70 57.64 57.00 56.52 55.76 55.24 53.86 52.45 52.10 51.51 49.83 48.61 46.13 45.32 44.34 43.20 43.18 44.48 46.31 47.18 48.70 49.40 47.23 43.43 41.37 40.52 39.60 38.63 37.12 37.31 37.15 40.94 41.57 41.17 43.24 38.88 38.39 40.73
53.84 55.32 56.76 58.15 58.04 56.44 55.98 55.28 54.74 53.75 52.71 51.47 50.42 49.67 48.30 48.82 47.61 48.19 47.26 44.34 43.25 41.94 40.98 42.46 44.16 46.02 49.14 49.77 49.76 47.56 42.95 37.99 36.62 35.47 35.54 35.20 36.14 38.62 42.35 42.81 42.56 35.47 35.98
53.13 58.09 56.98 55.78 52.38 51.57 51.60 51.64 51.09 49.49 49.35 48.54 48.14 47.82 46.82 46.25 44.79 44.76 45.06 41.99 41.39 41.39 41.12 41.47 43.52 45.03 46.26 44.83 47.86 46.46 45.90 45.41 42.73 36.95 35.19 35.69 35.69 37.83 38.76 42.90 42.99 39.93 36.06
53.30 56.18 53.29 50.95 49.61 49.39 48.53 47.97 48.08 48.20 47.34 46.85 46.46 45.12 44.01 43.83 42.93 42.57 43.47 42.09 41.57 41.00 40.72 39.65 40.90 42.01 43.27 44.25 42.95 41.71 41.21 42.25 43.14 42.25 38.14 38.85 39.18 39.90 40.63 42.03 39.62 40.65 38.52
53.48 52.53 50.65 49.59 48.90 47.74 46.67 46.40 46.44 45.47 44.80 44.17 43.76 42.49 41.25 40.69 41.94 42.02 42.27 41.39 39.93 39.50 40.81 42.01 41.31 40.66 42.71 42.92 41.80 40.86 43.43 43.60 46.18 45.40 44.45 43.27 42.17 42.84 43.92 42.33 44.36 38.32 35.85
52.66 50.37 50.52 49.41 48.62 47.18 46.03 45.68 44.79 43.50 42.56 42.19 40.99 40.86 42.24 40.53 40.93 41.03 41.57 41.37 39.24 39.94 40.74 41.21 43.03 41.03 40.62 40.91 39.86 39.73 40.82 41.79 42.63 42.97 42.73 41.89 42.06 42.75 45.32 42.95 43.03 39.77 36.04
50.43 49.34 49.01 48.88 46.34 45.32 44.69 44.43 43.14 42.83 42.64 42.24 41.74 41.93 42.27 42.37 41.38 41.03 40.96 41.10 41.13 40.54 40.22 39.60 40.10 40.63 40.01 39.99 40.31 40.07 41.40 42.65 43.05 42.61 42.64 42.22 42.30 42.67 43.55 43.41 43.80 41.02 36.84
48.75 47.66 46.28 45.20 45.15 43.83 42.60 42.36 42.57 42.14 41.23 40.48 40.65 40.45 41.08 42.67 42.48 40.86 40.46 40.64 42.15 39.76 37.83 37.88 38.90 39.83 39.54 39.86 40.94 39.42 40.51 42.47 42.41 42.03 40.82 40.40 39.60 40.56 43.01 43.66 43.03 41.48 42.58
46.17 44.80 43.30 42.45 41.89 42.23 41.59 41.31 41.49 41.46 40.78 40.22 39.63 38.28 38.66 40.01 40.70 41.44 40.81 41.14 42.22 40.21 40.50 41.45 40.63 40.10 40.48 41.20 40.40 40.31 41.02 41.33 40.75 41.08 38.00 39.76 38.93 40.11 42.55 43.08 43.89 43.72 42.69
44.15 42.38 41.97 40.70 40.54 41.06 41.59 41.53 40.92 40.74 39.47 38.69 38.30 38.07 38.42 38.17 39.49 42.70 43.22 42.58 42.40 41.83 43.12 42.21 41.61 41.20 41.02 41.55 41.30 41.33 41.14 40.76 40.03 39.52 40.17 40.97 40.30 41.72 41.93 42.21 41.21 40.82 40.64
43.42 41.83 40.86 40.55 40.41 40.40 40.70 41.19 40.47 40.51 37.70 38.65 38.61 38.45 38.13 36.94 35.89 41.10 41.41 40.69 39.49 39.41 39.95 41.65 41.12 41.28 41.39 41.75 42.67 43.21 42.71 41.87 40.50 39.78 39.97 39.54 40.02 41.53 41.88 42.54 41.84 41.52 39.24
41.49 41.17 40.35 39.18 39.67 40.45 39.34 37.80 37.52 37.84 37.41 36.64 36.66 36.97 36.58 37.39 39.35 39.19 38.97 38.36 37.99 39.02 39.00 37.01 36.63 37.05 37.57 39.72 40.83 41.10 42.27 42.27 41.67 40.69 38.49 38.72 40.28 40.73 41.93 42.92 42.91 40.85 40.31
39.96 40.57 39.64 39.35 39.36 38.28 36.93 35.69 34.54 35.24 36.73 36.22 36.73 38.82 39.79 38.94 38.57 38.57 38.29 37.91 38.09 39.24 37.00 36.67 36.71 37.27 38.61 41.21 39.39 38.24 37.23 38.82 39.99 39.38 38.19 39.27 40.93 41.52 41.08 41.80 42.60 41.70 41.84
40.74 40.07 39.18 39.05 38.95 37.71 37.06 36.70 37.05 36.30 35.22 36.51 36.24 39.46 38.36 38.69 38.86 38.56 38.80 39.57 38.76 38.07 37.41 38.96 38.61 38.73 39.65 39.86 38.45 37.58 38.65 39.88 40.47 39.41 39.07 41.23 42.28 40.85 40.23 40.75 42.01 41.75 41.53
40.51 40.43 39.29 38.53 37.91 37.12 37.01 37.14 36.47 35.79 35.03 36.18 38.69 38.69 38.24 37.58 37.54 37.87 38.33 37.86 36.02 34.68 34.41 34.43 34.09 34.72 35.02 35.37 35.65 36.43 36.77 37.25 38.69 39.93 41.61 42.39 42.62 41.26 40.40 40.65 41.54 39.20 40.12
40.06 38.74 38.65 37.32 36.52 36.65 36.65 35.41 34.84 35.34 36.64 37.14 36.88 37.06 38.42 38.14 36.31 35.46 35.62 35.07 33.56 32.29 32.42 32.91 33.40 33.07 32.71 33.04 34.04 34.91 36.28 36.56 37.69 40.83 41.48 42.64 42.95 42.60 41.88 42.02 42.46 42.24 41.39
38.27 37.35 36.89 37.04 36.95 36.97 36.68 36.18 36.96 37.06 36.92 36.06 34.94 35.14 33.47 35.44 33.92 33.67 33.35 32.39 31.26 31.37 31.35 31.92 32.03 32.39 32.70 32.43 32.24 32.88 34.11 35.47 36.45 39.54 41.05 41.63 42.37 41.51 42.30 43.20 43.71 43.71 42.24
37.23 37.43 37.43 37.23 37.67 37.69 36.75 36.99 37.31 36.90 36.58 36.04 35.65 34.86 33.42 34.40 33.48 32.79 32.22 32.37 31.80 31.47 31.43 31.91 31.74 31.11 30.47 30.27 30.06 30.55 31.36 32.41 35.17 37.69 40.25 41.05 41.22 41.75 42.99 41.99 41.49 41.39 41.18
37.97 37.54 37.59 38.07 37.72 36.25 37.33 37.38 37.14 36.99 36.71 36.53 36.00 35.28 34.62 33.12 32.66 32.42 32.73 32.23 31.88 31.95 31.75 31.81 30.67 29.49 29.53 29.98 29.98 29.39 30.18 30.23 31.79 36.31 38.93 40.50 40.32 40.75 42.35 41.89 41.17 40.32 39.76
38.13 38.11 37.75 37.25 37.13 36.99 37.16 36.79 36.76 35.79 37.06 36.27 35.71 34.82 34.00 33.64 32.68 32.03 31.81 31.85 31.89 31.62 31.69 31.04 30.14 29.42 29.61 29.95 30.21 30.36 30.64 31.14 33.92 35.81 38.22 39.95 39.60 39.76 41.14 40.90 39.87 39.74 39.70
38.70 38.08 37.64 37.28 37.31 36.88 37.01 37.20 37.28 37.19 36.95 36.36 35.68 34.77 33.91 33.31 32.50 32.50 31.54 31.25 30.89 30.66 30.03 29.51 29.12 29.92 30.41 30.67 30.97 31.33 31.09 32.32 33.39 33.19 37.42 39.02 39.08 39.74 39.82 39.53 38.76 38.85 38.41
38.58 38.32 37.91 37.42 37.07 37.09 37.18 36.93 36.53 36.57 36.27 36.02 34.85 34.19 33.94 32.68 31.59 31.26 30.24 29.74 29.20 28.65 28.30 27.96 29.10 29.66 30.36 30.71 31.21 31.27 31.36 31.61 33.29 32.40 36.18 37.82 37.64 37.91 39.26 38.74 38.46 37.95 37.21
MSLP
1005.10 1004.87 1004.58 1004.27 1003.93 1003.93 1004.26 1004.35 1004.82 1005.18 1005.33 1005.54 1005.79 1006.97 1007.80 1009.27 1007.78 1010.44 1010.44 1011.37 1012.78 1012.93 1013.37 1013.52 1013.96 1014.20 1013.87 1014.59 1014.37 1014.55 1014.02 1014.02 1015.21 1015.68 1015.61 1015.57 1015.10 1014.82 1014.23 1013.56 1013.21 1012.72 1012.38
1005.49 1005.26 1004.98 1004.26 1004.00 1003.99 1004.14 1004.51 1005.16 1005.60 1006.13 1006.29 1006.64 1007.20 1008.53 1008.84 1009.17 1009.96 1011.08 1012.87 1013.64 1013.90 1013.84 1014.25 1014.45 1014.87 1014.55 1015.10 1015.36 1014.95 1014.65 1014.58 1015.16 1015.90 1016.11 1015.71 1015.08 1014.92 1014.68 1013.83 1013.24 1012.46 1012.09
1005.88 1005.44 1005.04 1004.62 1004.53 1004.46 1004.66 1004.86 1005.47 1005.84 1006.82 1007.34 1007.51 1007.47 1009.36 1010.30 1010.56 1011.78 1012.50 1013.86 1014.95 1014.56 1015.25 1015.12 1015.43 1015.09 1015.07 1015.70 1015.37 1015.27 1015.51 1015.34 1015.56 1016.14 1016.35 1015.90 1015.35 1015.06 1014.79 1013.96 1013.54 1012.96 1012.57
1006.46 1006.11 1005.85 1005.26 1005.15 1004.99 1005.42 1005.76 1006.19 1006.51 1007.10 1007.94 1008.62 1009.01 1009.47 1010.43 1012.04 1013.18 1013.69 1014.98 1016.11 1016.12 1016.72 1016.31 1015.74 1015.70 1015.49 1015.61 1015.97 1015.64 1015.87 1016.11 1016.25 1016.20 1016.34 1016.12 1015.93 1015.48 1015.31 1014.58 1013.84 1013.09 1013.03
1006.95 1006.78 1006.55 1006.02 1005.85 1005.87 1006.12 1006.62 1007.09 1007.41 1007.77 1008.60 1009.16 1010.17 1010.74 1011.67 1012.79 1014.03 1015.22 1015.54 1016.49 1016.90 1016.74 1016.60 1015.97 1015.63 1015.85 1016.08 1016.30 1016.18 1016.38 1016.56 1016.63 1016.61 1016.74 1016.72 1016.62 1016.28 1015.65 1015.08 1014.46 1014.07 1013.59
1007.13 1007.03 1006.96 1006.63 1006.87 1006.92 1007.15 1007.55 1007.93 1008.49 1008.80 1009.18 1009.77 1010.37 1011.51 1012.17 1013.31 1014.65 1015.43 1016.69 1016.85 1017.40 1017.12 1016.61 1016.61 1016.16 1016.59 1016.91 1016.67 1016.54 1016.77 1016.69 1016.66 1016.94 1017.30 1017.28 1017.39 1016.84 1016.07 1015.42 1014.80 1014.64 1014.29
1007.36 1007.35 1007.13 1007.24 1007.82 1008.18 1008.34 1008.71 1009.21 1009.29 1009.92 1010.61 1011.28 1011.89 1012.40 1013.18 1013.01 1015.28 1016.03 1016.97 1017.05 1017.50 1016.98 1016.71 1016.85 1017.27 1017.24 1017.32 1017.26 1017.16 1017.13 1016.78 1016.97 1016.96 1017.54 1017.73 1017.45 1016.75 1016.30 1015.46 1015.14 1014.92 1014.41
1007.60 1007.66 1007.76 1007.94 1008.46 1009.03 1009.26 1009.53 1010.55 1010.46 1010.71 1011.62 1012.60 1013.30 1013.29 1014.42 1013.77 1015.53 1016.41 1017.14 1017.55 1017.34 1017.76 1017.87 1017.60 1017.91 1017.61 1017.66 1017.69 1017.66 1017.55 1017.52 1017.43 1017.03 1017.53 1017.77 1017.08 1016.30 1016.11 1015.72 1015.29 1014.73 1014.23
1007.85 1008.20 1008.45 1008.64 1009.24 1009.61 1010.21 1010.69 1011.47 1011.54 1011.99 1013.14 1013.54 1014.03 1014.77 1015.00 1014.78 1016.25 1016.22 1017.32 1017.81 1018.37 1018.41 1018.19 1018.40 1018.48 1017.85 1017.93 1017.86 1017.93 1017.82 1017.91 1017.41 1017.39 1017.29 1017.08 1016.46 1015.77 1015.59 1015.30 1015.09 1014.61 1014.52
1007.78 1008.46 1009.03 1009.17 1009.65 1010.41 1010.88 1011.78 1012.32 1012.71 1013.35 1014.37 1014.70 1015.32 1015.66 1015.81 1016.64 1016.49 1016.59 1017.37 1018.59 1019.12 1019.23 1019.29 1019.11 1018.70 1018.42 1018.37 1018.21 1018.44 1018.38 1018.35 1017.94 1017.63 1017.33 1016.55 1016.24 1015.91 1015.74 1015.56 1015.34 1015.03 1015.11
1008.45 1008.95 1009.61 1010.06 1010.59 1011.17 1011.87 1012.71 1013.16 1013.74 1014.83 1015.48 1015.95 1016.74 1016.62 1016.72 1017.33 1017.38 1017.53 1018.20 1019.40 1019.63 1019.94 1020.03 1019.57 1019.02 1018.92 1018.69 1018.75 1018.86 1018.79 1018.68 1018.26 1018.00 1017.54 1016.96 1016.35 1016.21 1016.19 1015.82 1015.20 1015.32 1015.43
1008.75 1009.40 1010.35 1010.92 1011.54 1012.23 1012.65 1013.85 1014.29 1014.74 1015.48 1016.42 1017.08 1017.45 1017.29 1017.40 1017.59 1018.28 1018.27 1019.17 1019.82 1019.82 1020.20 1020.21 1020.12 1019.67 1019.50 1019.47 1019.34 1019.35 1019.16 1018.95 1018.54 1018.25 1017.95 1017.59 1017.15 1016.79 1016.52 1016.19 1015.78 1015.33 1015.43
1009.19 1010.19 1011.01 1011.93 1012.80 1013.50 1013.79 1014.65 1015.09 1015.73 1016.30 1016.86 1017.45 1017.75 1017.31 1017.81 1018.75 1019.01 1019.39 1019.88 1020.25 1020.45 1020.24 1020.38 1020.26 1020.02 1019.96 1019.91 1019.78 1019.46 1019.41 1019.10 1018.90 1018.60 1018.58 1017.85 1017.63 1017.17 1016.83 1016.44 1016.47 1015.84 1015.41
1009.65 1010.89 1011.88 1012.60 1013.76 1014.59 1015.23 1015.84 1015.86 1016.44 1016.86 1017.63 1017.76 1017.43 1018.07 1018.76 1019.45 1019.94 1020.27 1020.62 1020.94 1020.89 1020.68 1020.63 1020.47 1020.58 1020.51 1020.33 1020.06 1019.94 1019.85 1019.52 1019.27 1019.12 1018.59 1017.99 1017.36 1016.81 1017.12 1016.93 1017.08 1016.82 1016.29
1010.26 1011.58 1012.65 1013.65 1014.47 1015.41 1016.38 1016.97 1017.15 1017.75 1017.64 1017.82 1017.98 1018.05 1018.57 1019.58 1020.16 1020.24 1020.64 1021.33 1021.30 1021.31 1021.38 1021.18 1021.15 1021.16 1021.07 1020.67 1020.41 1020.20 1019.82 1019.55 1019.29 1018.92 1018.77 1018.72 1018.48 1018.07 1017.35 1017.57 1017.49 1017.39 1016.98
1011.05 1012.33 1013.44 1014.35 1015.41 1016.38 1017.06 1017.85 1018.08 1017.95 1018.26 1018.14 1018.29 1018.76 1019.48 1019.82 1020.24 1020.58 1021.53 1021.72 1022.17 1021.45 1021.96 1022.09 1022.36 1022.19 1021.92 1021.73 1021.37 1020.91 1020.55 1020.16 1020.00 1019.59 1019.42 1019.03 1019.00 1018.80 1018.20 1018.20 1018.03 1017.96 1017.69
1011.67 1013.22 1014.34 1015.15 1016.11 1017.12 1017.68 1018.01 1018.71 1019.48 1019.36 1019.57 1019.59 1019.93 1020.31 1020.70 1021.07 1021.79 1022.36 1022.06 1021.96 1022.22 1022.89 1023.09 1023.28 1023.18 1022.71 1022.34 1022.05 1021.80 1021.70 1021.21 1020.80 1020.42 1020.11 1019.86 1019.17 1019.25 1019.04 1018.96 1018.74 1018.58 1018.42
1012.68 1013.96 1014.95 1016.06 1016.97 1017.66 1018.12 1018.55 1018.91 1019.53 1020.32 1021.01 1021.11 1021.24 1021.55 1021.93 1022.08 1022.24 1022.14 1022.48 1023.48 1023.62 1023.78 1024.20 1024.23 1023.94 1023.63 1023.27 1023.10 1022.90 1022.40 1021.82 1021.30 1021.28 1020.84 1020.20 1019.95 1019.93 1019.78 1019.70 1019.53 1019.40 1019.27
1013.40 1014.74 1015.82 1016.94 1017.85 1018.12 1018.57 1019.14 1019.77 1020.41 1021.12 1021.58 1022.18 1022.58 1022.63 1022.70 1022.91 1023.23 1023.38 1024.09 1024.35 1024.87 1024.66 1025.19 1025.30 1024.67 1024.38 1024.16 1024.07 1023.96 1023.12 1022.71 1022.24 1021.95 1021.30 1020.84 1020.62 1020.51 1020.45 1020.27 1020.20 1020.09 1020.03
1014.43 1015.53 1016.41 1017.73 1018.14 1018.57 1019.19 1019.80 1020.56 1021.09 1021.53 1022.34 1022.72 1023.23 1023.29 1023.39 1024.20 1024.63 1024.94 1025.05 1025.47 1025.61 1025.87 1026.10 1025.71 1025.36 1025.29 1025.03 1024.76 1024.56 1024.01 1023.43 1023.16 1022.64 1022.07 1021.57 1021.27 1021.08 1021.02 1020.92 1020.90 1020.88 1020.93
1015.58 1016.73 1017.07 1017.65 1018.38 1019.12 1019.84 1020.48 1021.08 1021.41 1022.03 1022.71 1023.56 1023.89 1024.15 1024.64 1025.33 1025.71 1026.42 1026.83 1026.61 1026.55 1026.52 1026.14 1026.29 1026.43 1026.02 1025.49 1025.60 1025.36 1025.01 1024.50 1023.99 1023.41 1022.86 1022.43 1022.03 1021.90 1021.78 1021.67 1021.58 1021.50 1021.61
1015.98 1016.76 1017.51 1018.11 1018.92 1019.82 1020.50 1021.08 1021.59 1022.18 1022.98 1023.71 1024.48 1024.99 1025.03 1026.04 1026.78 1027.15 1027.74 1027.21 1027.34 1027.49 1027.15 1027.03 1026.85 1026.66 1026.99 1026.68 1026.48 1026.14 1025.69 1025.32 1024.78 1024.16 1023.76 1023.38 1023.04 1022.78 1022.63 1022.62 1022.59 1022.61 1022.60
1016.40 1017.23 1018.08 1018.78 1019.61 1020.45 1021.20 1021.79 1022.50 1023.21 1023.74 1024.32 1025.08 1025.78 1026.62 1027.57 1028.07 1028.08 1027.85 1028.11 1028.12 1028.10 1027.79 1027.47 1027.37 1027.91 1027.85 1027.34 1026.93 1026.73 1026.41 1026.08 1025.68 1024.91 1024.49 1024.27 1024.04 1023.82 1023.64 1023.63 1023.66 1023.69 1023.76
1016.96 1017.79 1018.67 1019.59 1020.45 1021.29 1022.10 1022.82 1023.53 1023.97 1024.38 1025.39 1026.23 1027.10 1027.69 1028.11 1028.53 1028.72 1028.90 1028.96 1028.68 1028.53 1028.67 1028.81 1028.88 1029.11 1028.57 1028.05 1027.53 1027.05 1026.66 1026.25 1025.75 1025.44 1025.15 1024.99 1024.89 1024.77 1024.77 1024.81 1024.91 1024.83 1024.79
1017.74 1018.62 1019.45 1020.45 1021.40 1022.36 1023.09 1023.62 1024.16 1024.97 1025.68 1026.56 1027.25 1027.91 1028.30 1028.53 1029.14 1029.53 1029.50 1029.45 1029.40 1029.54 1029.92 1030.14 1030.01 1029.69 1029.22 1028.70 1028.21 1027.78 1027.29 1026.76 1026.44 1026.22 1026.06 1025.89 1025.76 1025.80 1025.92 1025.98 1026.03 1025.99 1025.89
1018.66 1019.47 1020.48 1021.52 1022.40 1023.03 1023.70 1024.40 1025.04 1025.81 1026.64 1027.51 1028.05 1028.45 1028.78 1029.45 1029.61 1029.69 1030.31 1030.26 1030.30 1030.81 1031.01 1030.90 1030.58 1030.23 1029.74 1029.34 1028.96 1028.56 1028.19 1027.81 1027.41 1027.13 1026.98 1026.92 1026.89 1026.95 1027.08 1027.10 1027.08 1027.06 1027.11
Wind_Speed
10 7 6 6 4 2 5 5 4 4 8 11 16 17 16 14 16 14 9 11 9 8 6 9 7 4 5 4 4 2 4 4 6 2 3 2 4 5 6 7 7 5 4
9 10 6 4 4 5 6 7 7 9 9 11 12 18 13 12 13 14 13 9 8 7 8 8 7 5 7 6 3 6 6 5 4 4 3 3 2 5 6 6 6 4 3
12 12 6 7 6 7 8 9 6 9 7 7 11 15 13 11 13 13 14 12 8 10 6 6 4 7 7 4 5 6 4 6 5 3 1 2 1 3 5 4 5 6 4
12 9 7 6 7 9 10 11 11 11 13 11 11 15 18 19 17 16 16 14 9 8 5 5 5 6 7 6 5 5 5 5 4 4 2 3 2 4 4 4 5 4 5
10 10 4 5 6 10 12 13 13 14 14 15 19 17 19 18 14 16 13 10 5 4 3 4 5 10 14 10 4 5 5 4 4 4 3 4 5 6 8 7 3 4 3
10 9 2 7 7 9 11 13 14 14 15 16 18 17 19 15 25 18 10 6 6 4 4 5 5 9 11 13 16 15 7 5 5 2 2 2 4 3 8 7 3 3 4
9 3 7 10 11 10 11 12 12 16 16 17 17 16 18 17 28 19 15 7 6 4 6 6 6 4 8 6 12 14 13 13 7 4 2 2 3 3 4 8 7 3 2
6 2 8 12 13 12 13 15 13 14 17 15 14 14 15 13 25 20 17 10 7 8 6 4 6 6 6 7 6 6 6 5 4 3 2 3 4 5 3 3 3 5 3
1 6 9 12 13 14 14 14 13 15 16 13 13 14 13 14 22 18 17 11 9 8 6 7 6 6 8 8 6 6 4 4 5 6 4 6 8 8 7 4 7 4 3
10 10 10 12 15 14 15 14 14 15 14 11 13 12 15 14 12 15 14 10 9 6 7 7 13 11 14 9 7 5 5 4 4 4 4 6 7 7 7 3 3 4 2
11 12 12 12 13 14 15 14 15 16 15 12 12 8 8 9 10 14 13 9 6 6 5 5 5 13 12 12 8 5 4 3 4 4 4 5 5 6 5 5 4 3 4
14 15 14 13 11 11 16 13 14 15 14 10 9 5 3 9 10 10 15 10 7 7 5 3 4 12 13 11 7 7 8 5 3 4 4 5 4 5 6 4 2 3 1
16 16 15 15 13 12 15 13 12 12 10 9 5 6 9 8 9 17 17 15 11 6 5 7 9 9 7 7 11 11 7 4 3 4 4 3 3 5 5 3 4 5 4
17 16 15 16 15 12 9 8 10 10 8 5 7 10 10 9 9 8 9 9 9 6 7 7 7 7 7 4 4 5 3 3 3 2 3 4 4 5 5 4 4 3 3
17 16 15 14 15 13 11 9 9 2 2 7 7 8 9 8 4 9 9 6 4 3 4 7 7 7 7 7 7 7 6 5 6 4 4 5 5 5 4 4 4 3 4
18 14 12 13 12 12 12 6 11 9 13 15 13 10 8 13 18 19 15 12 7 9 7 6 5 5 6 6 7 7 8 8 7 5 5 4 5 5 5 4 4 5 6
19 16 13 14 13 13 6 8 10 12 20 16 15 16 17 17 18 16 13 14 14 10 5 5 4 4 5 7 6 5 5 5 5 6 5 5 6 5 5 4 5 5 6
19 24 14 14 13 8 7 9 9 11 10 10 12 13 15 17 15 14 13 10 7 7 5 7 7 7 6 7 7 6 7 7 7 6 5 6 7 4 5 4 6 6 5
17 14 15 13 10 7 9 9 8 10 10 10 10 10 11 15 17 16 14 8 8 6 6 7 4 5 5 5 5 5 5 5 6 5 7 7 7 6 6 5 5 8 7
16 25 18 11 8 11 10 11 9 8 10 10 9 7 8 11 10 9 7 8 7 5 4 5 6 5 5 6 6 6 7 8 7 7 7 7 7 7 7 6 5 6 6
13 12 16 10 11 11 10 10 9 10 10 10 9 9 12 11 9 8 8 5 4 5 4 5 5 6 6 7 6 6 5 6 6 6 7 7 8 8 7 7 6 7 7
12 12 12 13 12 11 9 9 10 11 11 12 11 11 15 9 7 8 6 6 6 4 4 5 6 7 5 5 4 5 5 6 6 6 7 8 8 8 7 8 8 8 7
14 15 13 12 11 11 11 10 10 10 11 11 10 10 9 7 7 6 8 6 5 6 6 7 8 6 5 5 4 4 5 5 4 4 6 8 8 8 8 8 8 9 9
15 15 14 11 11 10 10 11 10 11 12 11 10 8 7 7 7 7 6 5 6 7 8 8 6 7 5 5 5 5 4 4 4 6 8 8 8 9 9 9 9 10 8
13 13 13 13 12 10 11 11 11 11 10 10 9 8 8 9 7 6 6 6 7 8 8 6 5 6 8 9 9 10 9 10 9 8 7 9 11 12 10 8 9 10 11
14 14 12 10 10 10 11 11 10 10 10 9 8 7 8 7 6 8 6 6 7 7 6 5 7 9 9 7 9 10 11 11 10 10 8 9 10 8 9 9 12 9 11
Wind_Direction
4 350 359 339 330 142 124 141 118 127 139 136 132 125 127 140 119 112 101 88 96 91 95 90 74 55 71 58 58 56 62 84 114 53 54 328 323 345 340 347 349 345 338
3 354 334 353 80 116 115 128 123 113 108 112 126 122 126 106 126 113 100 102 95 99 82 79 79 95 71 52 43 49 58 52 107 109 0 323 9 342 327 328 319 325 357
360 354 346 46 57 82 97 110 105 100 91 106 124 113 108 106 83 86 82 69 69 64 44 78 93 86 77 74 62 72 58 63 55 104 82 286 296 352 315 323 335 1 8
4 8 349 61 85 100 93 92 94 101 104 103 94 96 89 88 77 68 75 70 50 53 24 42 78 81 87 76 68 69 61 74 73 76 27 13 3 313 310 344 334 14 354
5 353 355 83 74 101 103 102 103 103 100 104 103 95 94 88 83 80 75 77 78 64 49 55 49 98 90 86 81 57 68 78 78 61 49 28 20 5 359 349 320 326 312
359 341 103 95 81 82 96 106 107 97 101 99 96 97 97 98 97 98 93 76 57 24 42 35 39 70 101 87 82 76 85 101 91 93 15 21 337 312 3 358 336 332 355
352 320 139 95 91 87 93 91 98 106 99 96 100 104 104 106 99 93 101 96 86 61 42 30 50 62 102 86 85 76 75 77 84 119 96 20 306 296 299 2 3 336 279
339 289 109 109 108 102 99 99 99 102 101 102 101 105 105 112 108 108 103 100 90 62 53 48 53 55 92 100 99 82 66 49 41 53 60 272 251 290 288 264 257 293 301
262 104 118 116 109 110 104 101 106 99 95 96 98 96 104 108 104 117 114 102 80 62 50 50 62 63 72 87 91 78 63 38 61 39 2 340 343 347 352 348 360 10 332
139 120 116 117 117 115 110 105 104 96 94 99 100 100 103 104 111 100 95 93 89 77 55 48 56 69 67 65 81 79 64 21 8 351 336 349 344 340 357 2 324 354 328
121 114 113 113 112 111 110 111 110 108 111 110 102 105 122 121 120 103 94 94 101 98 83 60 52 60 58 57 63 64 53 344 360 342 336 348 354 1 6 360 19 48 19
123 116 113 109 110 112 109 112 112 112 109 103 110 118 150 128 100 93 96 103 103 99 90 63 59 66 59 47 53 46 42 21 6 2 10 354 356 352 339 344 355 51 68
120 117 111 105 102 104 110 109 105 101 105 104 118 141 106 85 84 93 96 94 89 83 94 92 76 66 58 53 41 35 30 23 359 35 352 345 307 290 305 13 334 335 356
116 115 112 108 104 97 89 91 95 100 97 134 132 105 100 90 94 101 97 89 84 87 89 70 65 66 59 36 18 21 18 12 20 358 338 308 311 18 14 3 16 344 354
115 111 108 107 106 102 93 101 99 143 111 128 109 96 103 102 103 112 106 107 95 96 81 64 50 43 39 31 30 26 25 19 20 0 1 2 2 8 30 353 18 3 39
113 109 115 111 107 107 112 102 34 82 80 73 74 91 76 101 104 97 103 104 104 72 58 56 42 37 37 29 32 26 26 14 6 1 8 23 23 22 32 15 36 32 37
115 123 114 110 110 117 116 110 109 63 67 62 79 95 103 113 105 108 108 81 60 64 60 50 46 26 30 33 20 21 2 350 342 15 23 5 32 21 28 20 26 32 34
113 116 115 114 116 118 122 123 117 112 104 94 59 105 109 107 105 95 73 55 49 30 49 54 44 36 28 29 20 13 11 10 19 6 2 24 31 26 30 27 36 38 36
117 115 115 114 123 135 118 110 102 102 105 109 107 81 86 82 72 65 67 80 75 58 49 49 34 35 24 18 7 359 14 18 11 7 13 29 24 33 35 40 46 40 41
106 114 117 127 135 117 114 106 103 101 99 102 99 98 91 74 70 66 62 66 62 54 53 59 36 35 24 18 18 11 21 21 13 10 18 27 29 38 43 54 49 52 43
113 123 130 119 116 114 112 105 103 99 95 85 73 77 80 88 80 72 68 53 56 46 44 57 52 43 29 30 16 13 18 18 14 11 22 25 29 36 36 45 44 51 50
122 121 120 118 115 110 97 102 102 98 97 96 92 77 73 72 80 78 80 65 50 42 35 59 55 46 21 27 7 14 24 19 13 11 24 32 33 32 43 48 44 44 41
117 118 116 112 106 102 102 101 100 102 102 96 92 87 84 86 83 82 73 68 65 55 39 46 46 26 355 8 17 25 36 8 335 352 38 40 39 43 43 49 49 50 44
119 116 115 108 106 103 103 102 104 96 98 96 95 95 98 94 85 78 82 75 63 52 43 32 28 10 359 8 2 9 15 5 21 30 41 50 45 44 48 50 45 43 42
114 115 110 112 111 114 112 108 104 104 102 105 108 105 103 94 94 87 79 70 58 59 44 17 8 12 23 27 21 15 15 31 41 33 39 50 52 50 54 53 50 51 49
114 113 111 110 112 112 114 114 109 109 111 113 106 104 103 103 108 96 75 74 71 53 40 16 16 20 24 25 37 31 24 24 36 36 49 55 51 47 53 53 51 54 54